Location: Champignolles
(47.0543°N, 4.5663°E)
Time: 07:00:34
(UTC+00:00)

Cosmos 923 Rocket - Pass Details

Date: 12 April 2021
Orbit: 759 x 785 km, 74.0° (Epoch: 13 May)

Event Time Altitude Azimuth Distance (km) Brightness Sun altitude
Rises 19:29:23 0° 261° (W) 3,228 8.2 -10.9°
Reaches altitude 10° 19:33:12 10° 289° (WNW) 2,302 8.0 -11.4°
Maximum altitude 19:35:32 13° 316° (NW) 2,105 7.5 -11.8°
Drops below altitude 10° 19:37:52 10° 343° (NNW) 2,303 7.2 -12.2°
Sets 19:41:42 0° 11° (N) 3,230 7.5 -12.7°
